Powrót do katalogu

SL-16 DEB

AktywnyLEO
NORAD 22376·DEBRIS·🇷🇺 Russia

Wystrzelony Dec 25, 1992 z Baikonur Cosmodrome

Loading…

Następne Przeloty (najbliższe 24 godziny)

TLE

ŚwieżeSource: Space-Track

Epoka: Sep 14, 2026, 12:18 UTC

1 22376U 92093BR  26257.51294161  .00001218  00000-0  47326-3 0  9991
2 22376  70.8867 194.1904 0055887 262.7487 212.9826 14.31069699738775

Śledź SL-16 DEB w czasie rzeczywistym z AllMySat

Download on the App Store